Regional Weather Roundup
Issued by NWS

Home | Current Version | Previous Version | Graphics & Text | Print | Product List | Glossary On
Versions: 1 2 3 4 5 6 7 8 9 10 11 12 13 14 15 16 17 18 19 20 21 22 23 24 25 26 27 28 29 30 31 32 33 34 35 36 37 38 39 40 41 42 43 44 45 46 47 48 49 50
000
ASUS43 KMKX 261411
RWRWI

WISCONSIN REGIONAL WEATHER ROUNDUP
NATIONAL WEATHER SERVICE MILWAUKEE/SULLIVAN WI
900 AM CDT THU MAY 26 2016

NOTE: "FAIR" INDICATES FEW OR NO CLOUDS BELOW 12,000 FEET WITH NO
SIGNIFICANT WEATHER AND/OR OBSTRUCTIONS TO VISIBILITY.

WIZ001-002-006>008-014>016-023>028-261500-
NORTHWEST WISCONSIN

CITY           SKY/WX    TMP DP  RH WIND       PRES   REMARKS
SUPERIOR ARPT  FOG       44  44 100 NE5       29.83S VSB 1/2
ASHLAND        FOG       51  51 100 N5        29.82S THUNDER VSB 1/4
HAYWARD        CLOUDY    60  59  96 S5        29.81F FOG
SIREN          CLOUDY    60  60  98 CALM      29.81R FOG
CUMBERLAND     CLOUDY    59  59 100 CALM      29.81F
RICE LAKE      CLOUDY    62  61  96 CALM      29.83S
CHETEK         CLOUDY    63  63 100 SE3       29.80F
LADYSMITH      CLOUDY    63  62  98 S6        29.85R
EAU CLAIRE     CLOUDY    63  61  93 W6        29.81R
MENOMONIE      CLOUDY    65  64  99 CALM      29.81S
NEW RICHMOND   CLOUDY    64  56  74 SW7       29.83R
OSCEOLA        CLOUDY    65  64  96 S8        29.84R
$$

WIZ003>005-009-010-017-018-261500-
NORTH CENTRAL WISCONSIN

CITY           SKY/WX    TMP DP  RH WIND       PRES   REMARKS
MANITOWISH WTR NOT AVBL
ARBOR VITAE    CLOUDY    62  60  94 SE5       29.82F
WOODRUFF       CLOUDY    62  60  94 SE5       29.82F
RHINELANDER    CLOUDY    63  62  97 S5        29.83F FOG
EAGLE RIVER      N/A     63  61  95 CALM      29.82F
LAND O LAKES   CLOUDY    63  61  91 CALM      29.84F
PHILLIPS       CLOUDY    62  62 100 S10       29.81S
TOMAHAWK       CLOUDY    63  62  97 CALM      29.84S FOG
MEDFORD        RAIN      60  60 100 SE3       29.85S
MERRILL        TSTM      62  62 100 S9        29.86R
$$

WIZ029-030-035-036-043>047-261500-
CENTRAL WISCONSIN

CITY           SKY/WX    TMP DP  RH WIND       PRES   REMARKS
WAUSAU         RAIN      63  32  31 S5        29.84F
MOSINEE        TSTM      61  61 100 NW3       29.86F
MARSHFIELD     LGT RAIN  62  60  93 NE6       29.80F
STEVENS POINT  RAIN      59  59 100 N3        29.82F
WAUPACA        RAIN      64  63  96 CALM      29.86F
WAUTOMA        LGT RAIN  62  61  96 N5        29.80F
WISC RAPIDS    LGT RAIN  61  59  93 NE8       29.79F
CAMP DOUGLAS   PTSUNNY   63  59  88 CALM      29.80S
$$

WIZ011>013-019>022-031-037>040-048>050-261500-
NORTHEAST WISCONSIN

CITY           SKY/WX    TMP DP  RH WIND       PRES   REMARKS
ANTIGO         LGT RAIN  62  62 100 S13G20    29.87R VSB 1/2
SHAWANO        CLOUDY    64  63  96 CALM      29.85F FOG
OCONTO         CLOUDY    62  62 100 CALM      29.85S
STURGEON BAY   NOT AVBL
GREEN BAY      CLOUDY    65  64  97 S7        29.86R FOG
MANITOWOC      CLOUDY    59  59 100 CALM      29.88R FOG
APPLETON       CLOUDY    64  64 100 SW9       29.86R
CLINTONVILLE   CLOUDY    63  63 100 SW8       29.87R FOG
OSHKOSH        LGT RAIN  66  61  84 CALM      29.85S
$$

WIZ032>034-041-042-053>061-261500-
SOUTHWEST WISCONSIN

CITY           SKY/WX    TMP DP  RH WIND       PRES   REMARKS
LA CROSSE      PTSUNNY   64  61  90 S3        29.81S
SPARTA         CLOUDY    62  62  98 E5        29.81S
VIROQUA        PTSUNNY   64  61  93 SE8       29.83S
BOSCOBEL       PTSUNNY   68  61  78 VRB3      29.83F
PRAIRIE DU CHI PTSUNNY   62  61  96 CALM      29.84F
PLATTEVILLE    MOSUNNY   67  61  80 SE3       29.88R
$$

WIZ056-057-062-063-064-067-068-261500-
SOUTH CENTRAL WISCONSIN

CITY           SKY/WX    TMP DP  RH WIND       PRES   REMARKS
REEDSBURG      PTSUNNY   67  62  86 SE3       29.82F
BARABOO/DELLS  PTSUNNY   67  60  79 CALM      29.82F
LONE ROCK      CLOUDY    70  61  73 W6        29.84R
MINERAL POINT  MOSUNNY   70  61  73 NW3       29.87S
MADISON        CLOUDY    68  62  81 S5        29.85R
MIDDLETON      CLOUDY    70  62  75 CALM      29.86R
WATERTOWN      CLOUDY    66  66 100 E5        29.87F THUNDER
MONROE         CLOUDY    64  61  88 SW7       29.88S
JANESVILLE     MOSUNNY   66  63  88 S7        29.89F
$$

WIZ051-052-058>065-066-070>072-261500-
SOUTHEAST WISCONSIN

CITY           SKY/WX    TMP DP  RH WIND       PRES   REMARKS
MILWAUKEE      PTSUNNY   70  66  87 W10       29.92R THUNDER
WAUKESHA       RAIN      64  63  94 SW6       29.93R
MILWAUKEE/TIMM PTSUNNY   70  61  73 W14       29.92R
RACINE         LGT RAIN  70  66  87 W6        29.94R
BURLINGTON     CLOUDY    64  62  94 SW5       29.92S
KENOSHA        LGT RAIN  70  66  87 SW8       29.92R FOG
FOND DU LAC    LGT RAIN  66  63  90 NE10      29.83F
SHEBOYGAN      CLOUDY    70  65  84 SW14      29.90R
WEST BEND      DRIZZLE   68  59  73 W10G20    29.90S
JUNEAU         CLOUDY    64  62  95 S8        29.89F
$$

LSZ147-162-261500-
LAKE SUPERIOR

STATION/POSITION TIME  TEMP    WIND        PRES    WAVE
                       AIR SEA DIR/SP/G            HT/PER
                 (UTC) (F)     (DEG/KT/KT) (MB)    (FT/S)
W MID LAKE BUOY  1350   41 38   50/  8/ 10 1010.1F   1/ 3
DEVILS ISLAND    1400   43     100/  8/  9 1010.2R
SAXON HARBOR     1300   48     340/  2/  3 1009.1F
$$

LMZ867-665-643>646-261500-
LAKE MICHIGAN

STATION/POSITION TIME  TEMP    WIND        PRES    WAVE
                       AIR SEA DIR/SP/G            HT/PER
                 (UTC) (F)     (DEG/KT/KT) (MB)    (FT/S)
CHAMBERS ISLAND  1300   59     170/  4/  7 1011.5R
N MID LAKE BUOY  1350   48 45  200/ 14/ 16 1011.0S   1/ 3
NORTHPORT PIER   1300   56     170/  7/ 10 1011.2R
SISTER BAY       1305   58     170/  9/ 11   N/A
ALGOMA LAKESHORE 1317          150/  4/  8   N/A
KEWAUNEE LAKESHO 1300   49     150/  3/  5 1010.8S
SHEBOYGAN LAKESH 1400   55     180/ 19/ 20 1012.8R
PORT WASHINGTON  1320   55     170/  3/ 11 1012.9S
S MID LAKE BUOY  1350   54 49  170/ 14/ 14 1012.9R   1/ 3
KENOSHA   LAKESH 1400   69     250/  5/  9 1013.2R
$$

TC  - TEMPERATURE IN CELSIUS
VSB - VISIBILITY IN STATUTE MILES
WCI - WIND CHILL INDEX
HX  - HEAT INDEX





USA.gov is the U.S. government's official web portal to all federal, state and local government web resources and services.